Terug naar catalogus

STARLINK-32600

ActiefCommunicatieVLEO
NORAD 62178·PAYLOAD·🇺🇸 United States

Gelanceerd Nov 30, 2024 vanaf Vandenberg Space Force Base

Loading…

Volgende Passages (komende 24 uur)

TLE

VersSource: CelesTrak SupGP

Epoch: Sep 15, 2026, 02:12 UTC

1 62178C 24225R   26258.09215278 -.00015513  00000+0 -53984-3 0  2582
2 62178  70.0013  35.2088 0003319 270.6227 247.4919 15.29574392    19

Volg STARLINK-32600 in realtime met AllMySat

Download on the App Store